Regional Weather Roundup
Issued by NWS

Home | Current Version | Previous Version | Graphics & Text | Print | Product List | Glossary On
Versions: 1 2 3 4 5 6 7 8 9 10 11 12 13 14 15 16 17 18 19 20 21 22 23 24 25 26 27 28 29 30 31 32 33 34 35 36 37 38 39 40 41 42 43 44 45 46 47 48 49 50
000
ASUS45 KBOU 282110
RWRCO

WEATHER ROUNDUP FOR COLORADO
NATIONAL WEATHER SERVICE DENVER/BOULDER CO
300 PM MDT TUE JUL 28 2015

NOTE: "FAIR" INDICATES FEW OR NO CLOUDS BELOW 12000 FEET WITH NO
SIGNIFICANT WEATHER AND/OR OBSTRUCTIONS TO VISIBILITY.

COZ001>005-013-030-031-282200-
...NORTHWEST COLORADO...

CITY           SKY/WX    TMP DP  RH WIND       PRES   REMARKS
CRAIG          SUNNY     81  31  16 NW9       30.26F
HAYDEN         SUNNY     75  28  17 NW16G26   30.27F
MEEKER         SUNNY     80  30  16 S6        30.25F
MOUNT WERNER   NOT AVBL
STEAMBOAT SPGS SUNNY     74  31  21 W6        30.29F
WALDEN         SUNNY     72  25  17 SW22      30.36R
$$

COZ006>008-011-282200-
...WEST CENTRAL VALLEYS...

CITY           SKY/WX    TMP DP  RH WIND       PRES   REMARKS
GRAND JUNCTION SUNNY     87  31  13 W8        30.11F
MONTROSE       SUNNY     87  34  15 N10       30.18F
EAGLE          MOSUNNY   82  30  15 W14G24    30.24F
RIFLE          SUNNY     88  26  10 W18G28    30.15F
DELTA          SUNNY     91  32  12 S6        30.13F HAZE
NUCLA          SUNNY     86  27  11 W9        30.22F
$$

COZ017>023-064>068-282200-
...SOUTHWEST COLORADO...

CITY           SKY/WX    TMP DP  RH WIND       PRES   REMARKS
DURANGO        MOSUNNY   86  29  12 SW10G22   30.22F
CORTEZ         MOSUNNY   89  26  10 W17G23    30.18S
PAGOSA SPRINGS PTSUNNY   82  23  11 SW10G18   30.31F
TELLURIDE      MOSUNNY   72  32  22 W5        30.44S
WOLF CREEK PAS NOT AVBL
$$

COZ009-010-012-014-032>034-037-058>063-282200-
...CENTRAL COLORADO...

CITY           SKY/WX    TMP DP  RH WIND       PRES   REMARKS
ASPEN          SUNNY     77  36  22 NW12G17   30.31S
BUENA VISTA    SUNNY     82  22  10 W12G25    30.28S
COPPER MTN     MOSUNNY   63  18  17 SW18G31   30.64R
BERTHOUD PASS  FAIR      54  43  66 MISG      30.68S
COTTONWOOD PAS SUNNY     79  14   8 NW6G21    30.44F
GUNNISON       SUNNY     81  27  13 W15G26    30.31F
KREMMLING      SUNNY     81  16   9 NW10      30.28S
LEADVILLE      SUNNY     71  25  17 W10G28    30.45R
SALIDA         SUNNY     87  26  11 W12G23    30.32S
SUNLIGHT       SUNNY     68  34  28 SW3       30.57S
WILKERSON PASS SUNNY     72  18  13 SW9       30.58R
$$

COZ069>075-282200-
...SAN LUIS VALLEY/SANGRE DE CRISTO MOUNTAINS...

CITY           SKY/WX    TMP DP  RH WIND       PRES   REMARKS
ALAMOSA        PTSUNNY   84  33  16 S7        30.25F
LA VETA PASS   CLOUDY    64  34  32 MISG      30.51S
SAGUACHE       MOSUNNY   77  37  24 CALM      30.30F
$$

COZ035-036-038>040-282200-
...NORTHERN COLORADO FRONT RANGE...

CITY           SKY/WX    TMP DP  RH WIND       PRES   REMARKS
DENVER INTL AP MOSUNNY   84  39  20 E22G29    30.14F
DMNS CITY PARK   N/A     83  42  23 E18G28    30.11F
AURORA         MOSUNNY   83  45  25 E20       30.16S
FRONT RANGE AP MOSUNNY   82  39  21 E14       30.17S
ERIE MUNI ARPT SUNNY     86  36  17 SE12      30.13
BOULDER MUN AP SUNNY     82  37  20 SE7       30.14S
CENTENNIAL     MOSUNNY   85  41  21 SE14G29   30.15R
BROOMFIELD     MOSUNNY   84  41  21 E10G20    30.17S
FORT COLLINS   SUNNY     84  45  24 SE14      30.12S
LONGMONT       SUNNY     87  38  17 E9G17     30.14F
$$

COZ041-046-047-076>085-087-088-282200-
...PIKES PEAK/PALMER DIVIDE AND SOUTHERN FOOTHILLS...

CITY           SKY/WX    TMP DP  RH WIND       PRES   REMARKS
COLO. SPRINGS  MOSUNNY   84  35  17 S20G25    30.20F
A. F. ACADEMY  SUNNY     81  35  19 SE24G32   30.19F
ELLICOTT       SUNNY      1  32 100 S16G22    30.20F WCI -19
FALCON         SUNNY     79  37  21 SE16G26   30.26S
FORT CARSON    MOSUNNY   83  39  20 S13       30.17F
LIMON          SUNNY     80  41  24 E7        30.18F
MONUMENT HILL  SUNNY     77  41  27 SE20G25   30.25S
TRINIDAD       MOSUNNY   88  42  20 SE13G20   30.16F
$$

COZ042>045-048>051-090-091-282200-
...NORTHEAST COLORADO...

CITY           SKY/WX    TMP DP  RH WIND       PRES   REMARKS
GREELEY ARPT   SUNNY     82  43  24 E9        30.13S
AKRON          SUNNY     81  32  17 N6G18     30.15R
BURLINGTON     SUNNY     81  42  25 NE14      30.12S
WRAY           SUNNY     85  38  18 NE14      30.10S
STERLING       NOT AVBL
HOLYOKE        SUNNY     86  32  14 N15G25    30.10F
FORT MORGAN    SUNNY     85  36  17 E7        30.13S
$$

COZ086-089-092>099-282200-
...SOUTHEAST COLORADO...

CITY           SKY/WX    TMP DP  RH WIND       PRES   REMARKS
PUEBLO         SUNNY     91  36  14 E16G23    30.09F
LA JUNTA       SUNNY     90  39  16 E10G21    30.08F
LAMAR          SUNNY     90  41  18 E12G18    30.05F
SPRINGFIELD      N/A     86  41  20 NE13G23   30.10S
$$


USA.gov is the U.S. government's official web portal to all federal, state and local government web resources and services.